Flag for Greenland Weather past 2 weeks in Nuuk, Greenland

Now
21 °F

Scattered clouds.


Feels Like: 9 °F
Forecast: 21 / 25 °F
Wind: 13 mph from Northeast

Location: Godthaab / Nuuk

Current Time: Oct 25, 2014 at 5:16:41 PM

Latest Report: Oct 25, 2014 at 4:50 PM


Visibility: N/A

Pressure: 29.80 "Hg

Humidity: 74%

Dew point: 14 °F

Location of NuukLocation

Historic Weather in Nuuk — Graph

°F

Nuuk temperature yesterday

Maximum temperature yesterday: 28 °F (at 12:50 AM)
Minimum temperature yesterday: 21 °F (at 9:50 AM)
Average temperature yesterday: 24 °F

Past Weeks' High & Low Weather Summary

 TemperatureHumidityPressure
High43 °F (Oct 10, 3:50 PM)100% (Oct 11, 5:50 PM)30.04 "Hg (Oct 11, 5:50 PM)
Low21 °F (Oct 24, 9:50 AM)40% (Oct 20, 9:50 PM)29.30 "Hg (Oct 21, 11:50 AM)
Average33 °F78%29.75 "Hg
* Reported Oct 10 3:50 PM — Oct 25 3:50 PM, Nuuk, Weather by CustomWeather, © 2014

Note: Actual official high and low records may vary slightly from our data, if they occured in-between our weather recording intervals... More about our weather records

Advertising

Nuuk weather history for previous 24 hours

 ConditionsComfort  
Time TempWeatherWind HumidityBarometerVisibility
3:50 PM
Oct 25
21 °FScattered clouds.10 mph74%29.80 "HgN/A
2:50 PM25 °FPartly sunny.7 mph69%29.80 "HgN/A
1:50 PM23 °FBroken clouds.6 mph68%29.83 "HgN/A
12:50 PM23 °FScattered clouds.5 mph68%29.83 "HgN/A
11:50 AM23 °FScattered clouds.3 mph68%29.83 "HgN/A
10:50 AM21 °FBroken clouds.3 mph68%29.83 "HgN/A
9:50 AM23 °FPassing clouds.5 mph68%29.83 "HgN/A
8:50 AM21 °FPassing clouds.10 mph74%29.83 "HgN/A
7:50 AM21 °FPassing clouds.9 mph80%29.83 "HgN/A
6:50 AM23 °FPassing clouds.12 mph74%29.83 "HgN/A
5:50 AM25 °FPassing clouds.10 mph74%29.83 "HgN/A
4:50 AM23 °FPassing clouds.10 mph80%29.80 "HgN/A
3:50 AM23 °FSnow. Low clouds.9 mph86%29.77 "Hg1 mi
2:50 AM25 °FLight snow. Passing clouds.2 mph74%29.74 "HgN/A
1:50 AM25 °FLight snow. Mostly cloudy.5 mph74%29.74 "Hg2 mi
12:50 AM27 °FOvercast.2 mph54%29.77 "HgN/A
11:50 PM
Oct 24
25 °FSnow flurries. Overcast.3 mph59%29.77 "HgN/A
10:50 PM23 °FPassing clouds.6 mph80%29.77 "HgN/A
9:50 PM25 °FPassing clouds.14 mph69%29.77 "HgN/A
8:50 PM25 °FPassing clouds.13 mph63%29.74 "HgN/A
7:50 PM25 °FPassing clouds.18 mph69%29.71 "HgN/A
6:50 PM23 °FPassing clouds.14 mph80%29.68 "HgN/A
5:50 PM23 °FScattered showers. Partly sunny.20 mph93%29.65 "HgN/A
Weather by CustomWeather, © 2014

See weather overviewHow to use our weather pages